Showing default

UMBRA-05, 55036

Orbit data source: Space-Track

UMBRA-05, 55036 is a payload satellite owned by Umbra Labs (US) in SSO that was launched on Tue, 03 Jan 2023 UTC via an FALCON 9 launch vehicle from the Air Force Eastern Test Range (AFETR). Payload-class satellites include a variety of spacecraft equipped with specific instruments for various scientific and technological missions. These include communications satellites like Starlink; space stations such as the ISS; scientific satellites like the Hubble; Earth observation satellites from companies like Planet Labs, Umbra, and HawkEye 360; GPS; miniature CubeSats for education and research; and military/defense satellites.

Loading next visibility...
Identifier
55036, 2023-001AD
Orbit
SSO
Country
Flag of USUS
Related business
Manufacturer
Umbra Labs
Mission
Operational Commercial Radar Imaging
Bus & Motor
UMBRA, Unknown motor
Mass
65 kg wet, 60 kg dry
Launch date (UTC)
2023-01-03 (3 years ago)
Launch vehicle
FALCON 9
Launch site
Air Force Eastern Test Range (AFETR)
Object type
Payload
Rocket body
Debris
Shape & HBR
Box + 2 Pan + 1 Dish, 2.0 m
Radar Cross Section
6.513 m², Large (>1 m²)

Expand to show TLE details & history
Last TLE update: 20 hours ago

TLE from 20 hours ago
0 UMBRA-05
1 55036U 23001AD  25318.16412864  .01872335  20609-2  48627-2 0  9993
2 55036  97.3403  19.3852 0006459 290.4510  69.6072 15.95514813159254
Epoch: 2025-11-14T03:56Z
TLE epoch observation values (Epoch: 2025-11-14T03:56:20.714Z)
Latitude
-0.00004°
Longitude
-93.21266°
Altitude
288.576 km
Speed
7.735 km/s
True Right ascension
01h 17m 32s
True Declination
0° 00' 00"
Sunlit
Object was in full shadow at epoch
Visualization orbit readout
Latitude
Unknown
Longitude
Unknown
Altitude
Unknown
Speed
Unknown
Apparent Right ascension
Unknown
Apparent Declination
Unknown
Sunlit
N/A
Visualization observer readout
Local Sidereal Time
21:02:23
Azimuth
Unknown
Elevation
Unknown
Doppler factor
Unknown
Orbital elements
Apogee altitude
288.046 km
Perigee altitude
279.44 km
Semi-major axis
6,661.88 km
Eccentricity
0.00065
Inclination
97.3403°
RAAN
19.3852°
Arg. of periapsis
290.451°
True anomaly
69.6766°
Mean anomaly
69.6072°
Eccentric anomaly
69.6419°
Mean motion
3.99161 °/min
Orbital period
90.19 mins
BSTAR
0.0048627
Loading maneuver chart data...
Computing Atmospheric mass density...

Documentation

Showing up to 5 results
|